Weather History for Ireland West Airport Knock, Ireland

Change the Weather History Date:

Saturday, July 27, 2013

  Actual Average Record
Temperature  
Mean Temperature 62 °F -  
Max Temperature 69 °F - - ()
Min Temperature 54 °F - - ()
Degree Days  
Heating Degree Days 4    
Growing Degree Days 12 (Base 50)    
Moisture  
Dew Point 56 °F    
Average Humidity 84    
Maximum Humidity 100    
Minimum Humidity 49    
Precipitation  
Precipitation 0.47 in - - ()
Sea Level Pressure  
Sea Level Pressure 29.70 in    
Wind  
Wind Speed 7 mph ()    
Max Wind Speed 16 mph    
Max Gust Speed -    
Visibility 5.4 miles    
Events Fog , Rain    
T = Trace of Precipitation, MM = Missing Value Source: Averaged Metar Reports

Daily Weather History Graph

Daily Weather History Graph

Search for Another Location

Airport:

Trip Planner

Search our weather history database for the weather conditions in past years. The results will help you decide how hot, cold, wet, or windy it might be!

Date:

Astronomy

Jul. 27, 2013 Rise Set
Actual Time 5:40 AM IST 9:41 PM IST
Civil Twilight 4:54 AM IST 10:27 PM IST
Nautical Twilight 3:48 AM IST 11:32 PM IST
Astronomical Twilight 2:14 AM IST 1:09 AM IST
Moon 11:16 PM IST (7/27) 12:07 PM IST (7/27)
Length of Visible Light 17h 32m
Length of Day
16h 00m
Waning Gibbous, 73% of the Moon is Illuminated
Jul 27
Waning Gibbous
Jul 29
Last Quarter
Aug 6
New
Aug 14
First Quarter
Aug 21
Full

Hourly Weather History & Observations

Time (IST) Temp. Dew Point Humidity Pressure Visibility Wind Dir Wind Speed Gust Speed Precip Events Conditions
1:00 AM 57 °F 57 °F 98% 29.80 in - SE 4.5 mph - -  
6:00 AM 55.4 °F 55.4 °F 100% 29.74 in 0.2 mi SSE 6.9 mph - N/A Fog Fog
6:30 AM 55.4 °F 55.4 °F 100% 29.74 in 0.5 mi SSE 5.8 mph - N/A Fog Fog
7:00 AM 56 °F 56 °F 99% 29.76 in 0 mi SSE 6.7 mph - - Fog Partial Fog
7:00 AM 55.4 °F 55.4 °F 100% 29.74 in 0.4 mi SSE 6.9 mph - N/A Fog Fog
7:30 AM 55.4 °F 55.4 °F 100% 29.74 in 0.4 mi SE 6.9 mph - N/A Fog Fog
8:00 AM 57.2 °F 57.2 °F 100% 29.74 in 5.0 mi SSE 4.6 mph - N/A   Mostly Cloudy
8:30 AM 57.2 °F 57.2 °F 100% 29.74 in 6.2 mi SSE 6.9 mph - N/A   Mostly Cloudy
9:00 AM 59.0 °F 57.2 °F 94% 29.74 in 6.2 mi SSE 6.9 mph - N/A   Mostly Cloudy
9:30 AM 59.0 °F 57.2 °F 94% 29.74 in 6.2 mi South 6.9 mph - N/A   Mostly Cloudy
10:00 AM 62.6 °F 59.0 °F 88% 29.74 in 6.2 mi South 10.4 mph - N/A   Mostly Cloudy
10:30 AM 62.6 °F 57.2 °F 82% 29.74 in 6.2 mi South 8.1 mph - N/A   Mostly Cloudy
11:00 AM 62.6 °F 55.4 °F 77% 29.71 in 6.2 mi South 6.9 mph - N/A   Mostly Cloudy
11:30 AM 62.6 °F 55.4 °F 77% 29.71 in 6.2 mi South 8.1 mph - N/A Rain Light Rain Showers
12:00 PM 66.2 °F 55.4 °F 68% 29.71 in 6.2 mi South 8.1 mph - N/A   Mostly Cloudy
12:30 PM 66.2 °F 51.8 °F 60% 29.71 in 6.2 mi SSE 10.4 mph - N/A   Mostly Cloudy
1:00 PM 68 °F 53 °F 49% 29.69 in 34 mi SSE 11.2 mph - -   Partly Cloudy
1:00 PM 68.0 °F 53.6 °F 60% 29.71 in 6.2 mi SSE 11.5 mph - N/A   Mostly Cloudy
1:30 PM 69.8 °F 53.6 °F 56% 29.68 in 6.2 mi SSE 9.2 mph - N/A   Mostly Cloudy
2:00 PM 68.0 °F 53.6 °F 60% 29.68 in 6.2 mi SSE 11.5 mph - N/A   Scattered Clouds
2:30 PM 68.0 °F 53.6 °F 60% 29.68 in 6.2 mi SE 10.4 mph - N/A   Scattered Clouds
3:00 PM 66.2 °F 55.4 °F 68% 29.68 in 6.2 mi SE 10.4 mph - N/A   Scattered Clouds
3:30 PM 66.2 °F 53.6 °F 64% 29.68 in 6.2 mi SSE 9.2 mph - N/A   Mostly Cloudy
4:00 PM 57.2 °F 57.2 °F 100% 29.68 in 1.5 mi SSE 16.1 mph - N/A Rain Rain Showers
4:30 PM 59.0 °F 57.2 °F 94% 29.68 in 6.2 mi SE 8.1 mph - N/A Rain Light Rain Showers
5:00 PM 59.0 °F 57.2 °F 94% 29.65 in 6.2 mi ESE 5.8 mph - N/A   Mostly Cloudy
5:30 PM 60.8 °F 59.0 °F 94% 29.65 in 6.2 mi ESE 9.2 mph - N/A   Mostly Cloudy
6:00 PM 62.6 °F 60.8 °F 94% 29.65 in 6.2 mi SE 6.9 mph - N/A   Mostly Cloudy
6:30 PM 62.6 °F 59.0 °F 88% 29.65 in 6.2 mi SE 6.9 mph - N/A   Mostly Cloudy
7:00 PM 62 °F 60 °F 90% 29.64 in 17 mi SE 6.7 mph - - Rain Light Rain Showers
7:00 PM 60.8 °F 59.0 °F 94% 29.62 in 6.2 mi SE 6.9 mph - N/A Rain Light Rain Showers